GW5874 Weather Reports


time (UTC)temp
C
wind
direction
speed
KPH
gust
KPH
rain 1hr
cm
rain 24hr
cm
rain mn
cm
humidity
%
barometer
mb
20260902124542 23 270 0.0 0.0 0.00 0.00 0.00 85 1017.7
20260902124042 23 271 0.0 0.0 0.00 0.00 0.00 88 1017.8
20260902123538 22 280 0.0 0.0 0.00 0.00 0.00 90 1017.6
20260902123038 22 281 0.0 0.0 0.00 0.00 0.00 90 1017.7
20260902122532 21 269 0.0 0.0 0.00 0.00 0.00 92 1017.6
20260902122028 21 279 0.0 0.0 0.00 0.00 0.00 92 1017.5
20260902121527 21 242 0.0 0.0 0.00 0.00 0.00 92 1017.5
20260902121022 21 246 0.0 0.0 0.00 0.00 0.00 92 1017.6
20260902120519 21 278 0.0 0.0 0.00 0.00 0.00 92 1017.5
20260902120015 21 261 0.0 0.0 0.00 0.00 0.00 92 1017.5
20260902115509 21 288 0.0 0.0 0.00 0.00 0.00 92 1017.1
20260902115006 21 283 0.0 0.0 0.00 0.00 0.00 92 1017.3
20260902114501 21 274 0.0 0.0 0.00 0.00 0.00 92 1017.1
20260902113956 21 286 0.0 0.0 0.00 0.00 0.00 92 1017.2
20260902113452 21 260 0.0 0.0 0.00 0.00 0.00 92 1017.2
20260902112951 21 297 0.0 0.0 0.00 0.00 0.00 92 1017.3
20260902112447 21 271 0.0 0.0 0.00 0.00 0.00 92 1017.0
20260902111943 21 279 0.0 0.0 0.00 0.00 0.00 91 1017.2
20260902111440 21 279 0.0 0.0 0.00 0.00 0.00 91 1016.8
20260902110935 21 279 0.0 0.0 0.00 0.00 0.00 91 1017.2
20260902110431 21 269 0.0 0.0 0.00 0.00 0.00 91 1017.2
20260902105931 21 257 0.0 0.0 0.00 0.00 0.00 91 1016.7
20260902105426 21 267 0.0 0.0 0.00 0.00 0.00 91 1016.9
20260902104921 21 276 0.0 0.0 0.00 0.00 0.00 90 1016.7
20260902104417 21 280 0.0 0.0 0.00 0.00 0.00 90 1016.9
20260902103916 21 282 0.0 0.0 0.00 0.00 0.00 90 1017.0
20260902103411 21 280 0.0 0.0 0.00 0.00 0.00 90 1017.0
20260902102907 21 249 0.0 0.0 0.00 0.00 0.00 89 1016.9
20260902102404 21 249 0.0 0.0 0.00 0.00 0.00 89 1016.9
20260902101900 21 247 0.0 0.0 0.00 0.00 0.00 88 1016.8
20260902101354 21 282 0.0 0.0 0.00 0.00 0.00 88 1017.0
20260902100854 22 291 0.0 0.0 0.00 0.00 0.00 88 1016.8
20260902100353 22 280 0.0 0.0 0.00 0.00 0.00 87 1016.7
20260902095848 22 271 0.0 0.0 0.00 0.00 0.00 87 1016.8
20260902095343 22 277 0.0 0.0 0.00 0.00 0.00 86 1016.7
20260902094842 22 278 0.0 0.0 0.00 0.00 0.00 86 1016.6
20260902094339 22 241 0.0 0.0 0.00 0.00 0.00 85 1016.6
20260902093838 23 238 0.0 0.0 0.00 0.00 0.00 82 1016.7
20260902093333 23 292 0.0 0.0 0.00 0.00 0.00 82 1016.7
20260902092833 23 285 0.0 0.0 0.00 0.00 0.00 82 1016.7
20260902092329 22 297 0.0 0.0 0.00 0.00 0.00 82 1016.6
20260902091828 23 276 0.0 0.0 0.00 0.00 0.00 82 1016.4
20260902091324 22 255 0.0 0.0 0.00 0.00 0.00 84 1016.4
20260902090821 22 289 0.0 0.0 0.00 0.00 0.00 85 1016.4
20260902090320 22 242 0.0 0.0 0.00 0.00 0.00 84 1016.5
20260902085819 22 271 0.0 0.0 0.00 0.00 0.00 85 1016.3
20260902085314 22 262 0.0 0.0 0.00 0.00 0.00 87 1016.4
20260902084810 22 243 0.0 0.0 0.00 0.00 0.00 86 1016.5
20260902084307 22 276 0.0 0.0 0.00 0.00 0.00 85 1016.4
20260902083801 22 273 0.0 0.0 0.00 0.00 0.00 85 1016.4
20260902083255 22 260 0.0 0.0 0.00 0.00 0.00 84 1016.7
20260902082750 22 262 0.0 0.0 0.00 0.00 0.00 83 1016.3
20260902082247 22 285 0.0 0.0 0.00 0.00 0.00 83 1016.5
20260902081743 22 277 0.0 0.0 0.00 0.00 0.00 83 1016.2
20260902081238 23 261 0.0 0.0 0.00 0.00 0.00 82 1016.5
20260902080733 23 257 0.0 0.0 0.00 0.00 0.00 81 1016.5
20260902080231 23 271 0.0 0.0 0.00 0.00 0.00 80 1016.3
20260902075729 23 261 0.0 0.0 0.00 0.00 0.00 79 1016.4
20260902075226 24 271 0.0 0.0 0.00 0.00 0.00 76 1016.7
20260902074725 25 267 0.0 0.0 0.00 0.00 0.00 74 1016.4
20260902074221 25 254 0.0 0.0 0.00 0.00 0.00 73 1016.3
20260902073716 25 238 0.0 0.0 0.00 0.00 0.00 72 1016.3
20260902073212 26 243 0.0 0.0 0.00 0.00 0.00 70 1016.4
20260902072708 25 254 0.0 0.0 0.00 0.00 0.00 70 1016.4
20260902072204 26 258 0.0 0.0 0.00 0.00 0.00 70 1016.2
20260902071700 25 248 0.0 0.0 0.00 0.00 0.00 70 1016.4
20260902071155 25 305 0.0 0.0 0.00 0.00 0.00 70 1016.4
20260902070651 26 260 0.0 0.0 0.00 0.00 0.00 70 1016.3
20260902070151 26 242 0.0 0.0 0.00 0.00 0.00 70 1016.6
20260902065649 26 191 0.0 0.0 0.00 0.00 0.00 69 1016.6
20260902065145 26 219 0.0 0.0 0.00 0.00 0.00 69 1016.4
20260902064641 26 115 0.0 0.0 0.00 0.00 0.00 69 1016.5
20260902064136 26 234 0.0 0.0 0.00 0.00 0.00 70 1016.4
20260902063632 25 265 0.0 0.0 0.00 0.00 0.00 70 1016.3
20260902063126 25 188 0.0 0.0 0.00 0.00 0.00 70 1016.4
20260902062625 26 251 0.0 0.0 0.00 0.00 0.00 69 1016.5
20260902062120 26 236 0.0 0.0 0.00 0.00 0.00 68 1016.3
20260902061620 25 228 0.0 0.0 0.00 0.00 0.00 71 1016.5
20260902061116 25 277 0.0 0.0 0.00 0.00 0.00 74 1016.4
20260902060612 25 208 0.0 0.0 0.00 0.00 0.00 72 1016.3
20260902060108 25 141 0.0 0.0 0.00 0.00 0.00 73 1016.4
20260902055604 24 224 0.0 0.0 0.00 0.00 0.00 74 1016.1
20260902055059 24 240 0.0 0.0 0.00 0.00 0.00 74 1016.3
20260902054554 24 290 0.0 0.0 0.00 0.00 0.00 74 1016.1
20260902054050 23 235 0.0 0.0 0.00 0.00 0.00 75 1016.5
20260902053545 23 267 0.0 0.0 0.00 0.00 0.00 78 1016.4
20260902053044 23 256 0.0 0.0 0.00 0.00 0.00 79 1016.2
20260902052539 22 263 0.0 0.0 0.00 0.00 0.00 82 1016.4
20260902052035 22 282 0.0 0.0 0.00 0.00 0.00 83 1016.2
20260902051534 22 246 0.0 0.0 0.00 0.00 0.00 83 1016.3
20260902051033 22 248 0.0 0.0 0.00 0.00 0.00 84 1016.2
20260902050528 22 264 0.0 0.0 0.00 0.00 0.00 84 1016.4
20260902050024 22 272 0.0 0.0 0.00 0.00 0.00 84 1016.3
20260902045519 22 265 0.0 0.0 0.00 0.00 0.00 83 1016.3
20260902045015 22 268 0.0 0.0 0.00 0.00 0.00 83 1016.3
20260902044509 22 276 0.0 0.0 0.00 0.00 0.00 83 1016.1
20260902044005 22 273 0.0 0.0 0.00 0.00 0.00 82 1016.2
20260902043500 22 273 0.0 0.0 0.00 0.00 0.00 82 1015.9
20260902042955 22 260 0.0 0.0 0.00 0.00 0.00 82 1016.1
20260902042455 22 243 0.0 0.0 0.00 0.00 0.00 82 1015.9
20260902041950 22 251 0.0 0.0 0.00 0.00 0.00 81 1016.2
20260902041445 22 268 0.0 0.0 0.00 0.00 0.00 82 1016.2
20260902040945 22 265 0.0 0.0 0.00 0.00 0.00 82 1016.1
20260902040439 23 275 0.0 0.0 0.00 0.00 0.00 81 1015.9
20260902035938 22 279 0.0 0.0 0.00 0.00 0.00 81 1016.1
20260902035433 22 264 0.0 0.0 0.00 0.00 0.00 81 1015.8
20260902034933 23 268 0.0 0.0 0.00 0.00 0.00 81 1016.1
20260902034427 23 268 0.0 0.0 0.00 0.00 0.00 81 1016.2
20260902033927 23 268 0.0 0.0 0.00 0.00 0.00 81 1015.8
20260902033426 23 272 0.0 0.0 0.00 0.00 0.00 81 1016.2
20260902032926 23 274 0.0 0.0 0.00 0.00 0.00 81 1015.8
20260902032426 23 290 0.0 0.0 0.00 0.00 0.00 81 1015.9
20260902031920 23 269 0.0 0.0 0.00 0.00 0.00 80 1015.8
20260902031416 23 270 0.0 0.0 0.00 0.00 0.00 80 1015.7
20260902030912 23 264 0.0 0.0 0.00 0.00 0.00 80 1015.6
20260902030406 23 278 0.0 0.0 0.00 0.00 0.00 80 1015.6
20260902025905 23 271 0.0 0.0 0.00 0.00 0.00 79 1015.5
20260902025402 23 263 0.0 0.0 0.00 0.00 0.00 78 1015.5
20260902024901 23 268 0.0 0.0 0.00 0.00 0.00 78 1015.4
20260902024357 23 274 0.0 0.0 0.00 0.00 0.00 78 1015.2
20260902023852 24 281 0.0 0.0 0.00 0.00 0.00 78 1015.1
20260902023348 24 277 0.0 0.0 0.00 0.00 0.00 78 1015.2
20260902022847 24 264 0.0 0.0 0.00 0.00 0.00 77 1015.2
20260902022342 24 277 0.0 0.0 0.00 0.00 0.00 76 1014.9
20260902021838 24 269 0.0 0.0 0.00 0.00 0.00 77 1015.0
20260902021332 25 261 0.0 0.0 0.00 0.00 0.00 76 1014.9
20260902020828 25 272 0.0 0.0 0.00 0.00 0.00 75 1014.9
20260902020324 25 266 0.0 0.0 0.00 0.00 0.00 75 1014.6
20260902015820 25 272 0.0 0.0 0.00 0.00 0.00 74 1014.5
20260902015315 25 273 0.0 0.0 0.00 0.00 0.00 74 1014.6
20260902014811 25 273 0.0 0.0 0.00 0.00 0.00 73 1014.5
20260902014308 26 232 0.0 0.0 0.00 0.00 0.00 72 1014.3
20260902013806 26 271 0.0 0.0 0.00 0.00 0.00 72 1014.4
20260902013301 26 266 0.0 0.0 0.00 0.00 0.00 71 1014.3
20260902012757 26 268 0.0 0.0 0.00 0.00 0.00 70 1014.2
20260902012253 26 279 0.0 0.0 0.00 0.00 0.00 70 1014.2
20260902011748 27 271 0.0 0.0 0.00 0.00 0.00 69 1014.4
20260902011248 27 273 0.0 0.0 0.00 0.00 0.00 69 1014.3
20260902010747 27 278 0.0 0.0 0.00 0.00 0.00 68 1014.3
20260902010243 27 266 0.0 0.0 0.00 0.00 0.00 67 1014.3
20260902005741 28 271 0.0 0.0 0.00 0.00 0.00 66 1014.4
20260902005237 28 279 0.0 0.0 0.00 0.00 0.00 65 1014.3
20260902004737 28 252 0.0 0.0 0.00 0.00 0.00 64 1014.1
20260902004232 29 256 0.0 0.0 0.00 0.00 0.00 62 1014.4
20260902003727 29 285 0.0 0.0 0.00 0.00 0.00 60 1014.4
20260902003222 30 259 0.0 0.0 0.00 0.00 0.00 60 1014.5
20260902002718 30 216 0.0 0.0 0.00 0.00 0.00 59 1014.2
20260902002218 30 274 0.0 0.0 0.00 0.00 0.00 56 1014.4
20260902001713 31 254 0.0 0.0 0.00 0.00 0.00 57 1014.3
20260902001213 31 264 0.0 0.0 0.00 0.00 0.00 52 1014.5
20260902000708 32 256 0.0 0.0 0.00 0.00 0.00 51 1014.5
20260902000204 32 276 0.0 0.0 0.00 0.00 0.00 49 1014.5
20260901235703 33 253 0.0 0.0 0.00 0.00 0.00 47 1014.6
20260901235158 33 266 0.0 0.0 0.00 0.00 0.00 45 1014.6
20260901234657 34 263 0.0 1.6 0.00 0.00 0.00 43 1014.5
20260901234152 34 265 0.0 0.0 0.00 0.00 0.00 44 1014.6
20260901233647 33 253 0.0 0.0 0.00 0.00 0.00 42 1014.5
20260901233143 34 249 0.0 0.0 0.00 0.00 0.00 42 1014.7
20260901232638 34 218 1.6 1.6 0.00 0.00 0.00 42 1014.8
20260901232133 34 247 0.0 1.6 0.00 0.00 0.00 41 1014.9
20260901231630 34 259 0.0 0.0 0.00 0.00 0.00 42 1014.7
20260901231126 33 242 0.0 1.6 0.00 0.00 0.00 42 1014.7
20260901230622 35 147 3.2 4.8 0.00 0.00 0.00 46 1014.7
20260901230121 35 243 0.0 1.6 0.00 0.00 0.00 38 1014.8
20260901225616 35 237 0.0 1.6 0.00 0.00 0.00 37 1014.8
20260901225116 36 211 1.6 1.6 0.00 0.00 0.00 37 1014.7
20260901224612 36 227 0.0 1.6 0.00 0.00 0.00 35 1014.6
20260901224108 37 272 1.6 1.6 0.00 0.00 0.00 34 1014.4
20260901223603 38 232 1.6 4.8 0.00 0.00 0.00 33 1014.7
20260901223104 38 268 3.2 6.4 0.00 0.00 0.00 33 1014.6
20260901222600 37 211 3.2 6.4 0.00 0.00 0.00 33 1014.5
20260901222055 38 237 3.2 6.4 0.00 0.00 0.00 33 1014.5
20260901221552 38 61 3.2 4.8 0.00 0.00 0.00 33 1014.4
20260901221047 38 207 4.8 6.4 0.00 0.00 0.00 31 1014.5
20260901220546 38 213 6.4 6.4 0.00 0.00 0.00 31 1014.6
20260901220045 38 219 4.8 8.0 0.00 0.00 0.00 32 1014.7
20260901215543 37 272 3.2 4.8 0.00 0.00 0.00 34 1014.7
20260901215038 36 270 1.6 4.8 0.00 0.00 0.00 35 1014.6
20260901214537 36 169 0.0 1.6 0.00 0.00 0.00 35 1014.8
20260901214032 37 111 9.7 12.9 0.00 0.00 0.00 34 1014.6
20260901213532 37 120 6.4 8.0 0.00 0.00 0.00 33 1014.7
20260901213032 39 232 8.0 11.3 0.00 0.00 0.00 31 1014.7
20260901212531 38 226 0.0 0.0 0.00 0.00 0.00 32 1014.9
20260901212028 38 166 0.0 1.6 0.00 0.00 0.00 31 1014.8
20260901211523 38 209 9.7 12.9 0.00 0.00 0.00 32 1014.9
20260901211020 38 201 4.8 6.4 0.00 0.00 0.00 32 1015.0
20260901210515 38 207 8.0 8.0 0.00 0.00 0.00 31 1014.8
20260901210011 39 185 8.0 11.3 0.00 0.00 0.00 32 1015.2
20260901205506 38 284 3.2 4.8 0.00 0.00 0.00 32 1015.3
20260901205000 37 218 9.7 11.3 0.00 0.00 0.00 33 1015.2
20260901204457 37 251 0.0 0.0 0.00 0.00 0.00 34 1015.3
20260901203956 36 241 3.2 4.8 0.00 0.00 0.00 37 1015.4
20260901203451 37 199 6.4 8.0 0.00 0.00 0.00 35 1015.3
20260901202946 37 175 9.7 12.9 0.00 0.00 0.00 33 1015.5
20260901202442 37 255 1.6 1.6 0.00 0.00 0.00 35 1015.5
20260901201937 36 219 4.8 6.4 0.00 0.00 0.00 35 1015.7
20260901201432 36 249 4.8 6.4 0.00 0.00 0.00 39 1015.7
20260901200931 36 240 1.6 1.6 0.00 0.00 0.00 37 1015.8
20260901200427 36 223 1.6 1.6 0.00 0.00 0.00 39 1015.7
20260901195925 37 62 3.2 4.8 0.00 0.00 0.00 36 1015.9
20260901195419 36 206 4.8 6.4 0.00 0.00 0.00 38 1015.9
20260901194914 36 75 1.6 1.6 0.00 0.00 0.00 40 1016.1
20260901194409 36 260 0.0 0.0 0.00 0.00 0.00 38 1016.1
20260901193905 36 303 1.6 1.6 0.00 0.00 0.00 37 1016.2
20260901193404 37 54 3.2 4.8 0.00 0.00 0.00 36 1016.3
20260901192903 36 270 1.6 1.6 0.00 0.00 0.00 37 1016.5
20260901192359 35 291 1.6 1.6 0.00 0.00 0.00 38 1016.4
20260901191855 36 251 1.6 1.6 0.00 0.00 0.00 38 1016.4
20260901191351 37 264 3.2 4.8 0.00 0.00 0.00 35 1016.7
20260901190847 36 261 3.2 4.8 0.00 0.00 0.00 37 1016.7
20260901190346 37 262 1.6 1.6 0.00 0.00 0.00 35 1016.6
20260901185845 37 316 3.2 4.8 0.00 0.00 0.00 35 1016.7
20260901185344 37 32 3.2 6.4 0.00 0.00 0.00 37 1016.8
20260901184839 35 94 6.4 8.0 0.00 0.00 0.00 38 1016.7
20260901184335 36 191 4.8 6.4 0.00 0.00 0.00 39 1016.9
20260901183830 36 268 0.0 0.0 0.00 0.00 0.00 37 1017.1
20260901183329 38 263 3.2 4.8 0.00 0.00 0.00 35 1016.9
20260901182826 37 250 3.2 4.8 0.00 0.00 0.00 36 1017.1
20260901182325 36 236 8.0 8.0 0.00 0.00 0.00 38 1017.1
20260901181820 37 22 3.2 4.8 0.00 0.00 0.00 36 1017.1
20260901181315 37 284 6.4 8.0 0.00 0.00 0.00 34 1017.4
20260901180814 37 306 4.8 6.4 0.00 0.00 0.00 37 1017.5
20260901180314 35 263 1.6 1.6 0.00 0.00 0.00 41 1017.6
20260901175813 36 235 6.4 6.4 0.00 0.00 0.00 40 1017.7
20260901175308 37 230 8.0 8.0 0.00 0.00 0.00 37 1017.7
20260901174802 36 113 8.0 8.0 0.00 0.00 0.00 38 1017.7
20260901174258 36 236 4.8 6.4 0.00 0.00 0.00 38 1017.7
20260901173754 36 183 8.0 11.3 0.00 0.00 0.00 38 1017.8
20260901173254 37 198 6.4 12.9 0.00 0.00 0.00 38 1018.1
20260901172751 36 242 3.2 6.4 0.00 0.00 0.00 39 1018.1
20260901172250 36 242 0.0 0.0 0.00 0.00 0.00 40 1017.9
20260901171748 35 233 3.2 4.8 0.00 0.00 0.00 42 1018.2
20260901171248 36 304 4.8 6.4 0.00 0.00 0.00 41 1018.0
20260901170747 36 293 3.2 4.8 0.00 0.00 0.00 40 1018.3
20260901170246 36 327 4.8 4.8 0.00 0.00 0.00 41 1018.3
20260901165745 36 178 11.3 16.1 0.00 0.00 0.00 40 1018.1
20260901165240 35 288 3.2 4.8 0.00 0.00 0.00 42 1018.2
20260901164737 36 297 6.4 8.0 0.00 0.00 0.00 42 1018.5
20260901164232 36 192 9.7 11.3 0.00 0.00 0.00 42 1018.4
20260901163727 35 168 3.2 4.8 0.00 0.00 0.00 45 1018.6
20260901163226 35 264 4.8 4.8 0.00 0.00 0.00 44 1018.6
20260901162721 35 227 6.4 8.0 0.00 0.00 0.00 44 1018.8
20260901162221 35 211 9.7 11.3 0.00 0.00 0.00 43 1018.7
20260901161720 35 183 8.0 11.3 0.00 0.00 0.00 45 1018.6
20260901161215 35 285 3.2 4.8 0.00 0.00 0.00 46 1018.9
20260901160711 34 181 8.0 8.0 0.00 0.00 0.00 47 1018.7
20260901160206 33 191 6.4 8.0 0.00 0.00 0.00 47 1018.7
20260901155705 34 239 3.2 4.8 0.00 0.00 0.00 47 1018.6
20260901155200 33 290 1.6 1.6 0.00 0.00 0.00 48 1018.8
20260901154655 33 295 1.6 4.8 0.00 0.00 0.00 48 1018.6
20260901154150 32 274 3.2 6.4 0.00 0.00 0.00 51 1018.8
20260901153645 32 230 8.0 11.3 0.00 0.00 0.00 52 1018.7
20260901153140 32 189 11.3 17.7 0.00 0.00 0.00 52 1018.8
20260901152634 32 202 3.2 4.8 0.00 0.00 0.00 53 1018.8
20260901152132 31 208 3.2 4.8 0.00 0.00 0.00 54 1018.9
20260901151628 31 269 8.0 11.3 0.00 0.00 0.00 54 1018.8
20260901151127 31 145 6.4 8.0 0.00 0.00 0.00 54 1018.8
20260901150621 31 221 3.2 6.4 0.00 0.00 0.00 54 1018.8
20260901150120 31 200 8.0 11.3 0.00 0.00 0.00 54 1018.7
20260901145618 31 206 9.7 11.3 0.00 0.00 0.00 54 1018.7
20260901145117 31 217 8.0 8.0 0.00 0.00 0.00 56 1018.8
20260901144614 31 196 3.2 6.4 0.00 0.00 0.00 56 1018.6
20260901144109 30 231 6.4 6.4 0.00 0.00 0.00 57 1018.7
20260901143604 30 167 3.2 4.8 0.00 0.00 0.00 57 1018.9
20260901143100 30 207 6.4 6.4 0.00 0.00 0.00 58 1018.9
20260901142555 30 193 1.6 1.6 0.00 0.00 0.00 58 1018.9
20260901142054 29 230 3.2 4.8 0.00 0.00 0.00 59 1018.8
20260901141549 29 208 0.0 0.0 0.00 0.00 0.00 60 1018.8
20260901141044 30 224 0.0 0.0 0.00 0.00 0.00 59 1018.9
20260901140543 29 199 0.0 0.0 0.00 0.00 0.00 59 1019.0
20260901140038 29 249 0.0 0.0 0.00 0.00 0.00 61 1018.9
20260901135537 28 194 0.0 0.0 0.00 0.00 0.00 61 1018.7
20260901135033 28 207 0.0 0.0 0.00 0.00 0.00 61 1019.0
20260901134529 28 251 0.0 0.0 0.00 0.00 0.00 62 1019.0
20260901134028 28 224 0.0 0.0 0.00 0.00 0.00 63 1019.0
20260901133527 27 220 0.0 0.0 0.00 0.00 0.00 66 1018.8
20260901133027 27 208 0.0 0.0 0.00 0.00 0.00 67 1018.9
20260901132527 26 255 0.0 0.0 0.00 0.00 0.00 68 1018.7
20260901132026 26 209 0.0 0.0 0.00 0.00 0.00 71 1018.8
20260901131521 25 197 0.0 0.0 0.00 0.00 0.00 74 1018.7
20260901131016 24 272 0.0 0.0 0.00 0.00 0.00 77 1018.6
20260901130510 23 267 0.0 0.0 0.00 0.00 0.00 80 1018.6
20260901130009 22 270 0.0 0.0 0.00 0.00 0.00 83 1018.8
20260901125508 22 276 0.0 0.0 0.00 0.00 0.00 85 1018.6
20260901125008 21 258 0.0 0.0 0.00 0.00 0.00 87 1018.7